owner,sensor,date,latitude,longitude,vertical_datum,mass_concentration_of_oxygen_in_sea_water,qcFlag 
NERRS,ioos:station:NOAA.NERRS:rkblhwq:1,2017-09-01T00:45:00Z,26.0257,-81.7332,3.89,6.9,1111122 
NERRS,ioos:station:NOAA.NERRS:rkblhwq:1,2017-09-01T01:45:00Z,26.0257,-81.7332,4.25,6.5,1111122 
NERRS,ioos:station:NOAA.NERRS:rkblhwq:1,2017-09-01T02:45:00Z,26.0257,-81.7332,4.57,6.5,1111122 
NERRS,ioos:station:NOAA.NERRS:rkblhwq:1,2017-09-01T03:45:00Z,26.0257,-81.7332,4.76,6.3,1111122 
NERRS,ioos:station:NOAA.NERRS:rkblhwq:1,2017-09-01T04:45:00Z,26.0257,-81.7332,4.71,5.5,1111122 
NERRS,ioos:station:NOAA.NERRS:rkblhwq:1,2017-09-01T05:45:00Z,26.0257,-81.7332,4.49,4.7,1111122 
NERRS,ioos:station:NOAA.NERRS:rkblhwq:1,2017-09-01T06:45:00Z,26.0257,-81.7332,4.17,5.8,1111122 
NERRS,ioos:station:NOAA.NERRS:rkblhwq:1,2017-09-01T07:45:00Z,26.0257,-81.7332,3.99,5.1,1111122 
NERRS,ioos:station:NOAA.NERRS:rkblhwq:1,2017-09-01T08:45:00Z,26.0257,-81.7332,3.9,5.0,1111122 
NERRS,ioos:station:NOAA.NERRS:rkblhwq:1,2017-09-01T09:45:00Z,26.0257,-81.7332,3.98,3.5,1111122 
NERRS,ioos:station:NOAA.NERRS:rkblhwq:1,2017-09-01T10:45:00Z,26.0257,-81.7332,4.2,4.2,1111122 
NERRS,ioos:station:NOAA.NERRS:rkblhwq:1,2017-09-01T11:45:00Z,26.0257,-81.7332,4.63,5.2,1111122 
NERRS,ioos:station:NOAA.NERRS:rkblhwq:1,2017-09-01T12:45:00Z,26.0257,-81.7332,4.94,4.7,1111122 
NERRS,ioos:station:NOAA.NERRS:rkblhwq:1,2017-09-01T13:45:00Z,26.0257,-81.7332,5.13,4.4,1111122 
NERRS,ioos:station:NOAA.NERRS:rkblhwq:1,2017-09-01T14:45:00Z,26.0257,-81.7332,5.17,3.6,1111122 
NERRS,ioos:station:NOAA.NERRS:rkblhwq:1,2017-09-01T15:45:00Z,26.0257,-81.7332,5.0,3.9,1111122 
NERRS,ioos:station:NOAA.NERRS:rkblhwq:1,2017-09-01T16:45:00Z,26.0257,-81.7332,4.68,3.5,1111122 
NERRS,ioos:station:NOAA.NERRS:rkblhwq:1,2017-09-01T17:45:00Z,26.0257,-81.7332,4.3,4.6,1111122 
NERRS,ioos:station:NOAA.NERRS:rkblhwq:1,2017-09-01T18:45:00Z,26.0257,-81.7332,3.91,4.6,1111122 
NERRS,ioos:station:NOAA.NERRS:rkblhwq:1,2017-09-01T19:45:00Z,26.0257,-81.7332,3.48,4.6,1111122 
NERRS,ioos:station:NOAA.NERRS:rkblhwq:1,2017-09-01T20:45:00Z,26.0257,-81.7332,3.07,5.0,1111122 
NERRS,ioos:station:NOAA.NERRS:rkblhwq:1,2017-09-01T21:45:00Z,26.0257,-81.7332,2.79,5.8,1111122 
NERRS,ioos:station:NOAA.NERRS:rkblhwq:1,2017-09-01T23:45:00Z,26.0257,-81.7332,3.36,6.7,1111122 
NERRS,ioos:station:NOAA.NERRS:rkblhwq:1,2017-09-02T00:45:00Z,26.0257,-81.7332,3.85,5.8,1111122 
NERRS,ioos:station:NOAA.NERRS:rkblhwq:1,2017-09-02T01:45:00Z,26.0257,-81.7332,4.23,5.9,1111122 
NERRS,ioos:station:NOAA.NERRS:rkblhwq:1,2017-09-02T02:45:00Z,26.0257,-81.7332,4.63,5.9,1111122 
NERRS,ioos:station:NOAA.NERRS:rkblhwq:1,2017-09-02T03:45:00Z,26.0257,-81.7332,4.92,5.6,1111122 
NERRS,ioos:station:NOAA.NERRS:rkblhwq:1,2017-09-02T04:45:00Z,26.0257,-81.7332,5.05,4.2,1111122 
NERRS,ioos:station:NOAA.NERRS:rkblhwq:1,2017-09-02T05:45:00Z,26.0257,-81.7332,4.75,5.1,1111122 
NERRS,ioos:station:NOAA.NERRS:rkblhwq:1,2017-09-02T06:45:00Z,26.0257,-81.7332,4.29,5.4,1111122 
NERRS,ioos:station:NOAA.NERRS:rkblhwq:1,2017-09-02T07:45:00Z,26.0257,-81.7332,3.93,4.9,1111122 
NERRS,ioos:station:NOAA.NERRS:rkblhwq:1,2017-09-02T08:45:00Z,26.0257,-81.7332,3.68,3.9,1111122 
NERRS,ioos:station:NOAA.NERRS:rkblhwq:1,2017-09-02T09:45:00Z,26.0257,-81.7332,3.69,3.3,1111122 
NERRS,ioos:station:NOAA.NERRS:rkblhwq:1,2017-09-02T10:45:00Z,26.0257,-81.7332,3.89,2.6,1111122 
NERRS,ioos:station:NOAA.NERRS:rkblhwq:1,2017-09-02T11:45:00Z,26.0257,-81.7332,4.13,3.3,1111122 
NERRS,ioos:station:NOAA.NERRS:rkblhwq:1,2017-09-02T12:45:00Z,26.0257,-81.7332,4.33,4.1,1111122 
NERRS,ioos:station:NOAA.NERRS:rkblhwq:1,2017-09-02T13:45:00Z,26.0257,-81.7332,4.71,4.9,1111122 
NERRS,ioos:station:NOAA.NERRS:rkblhwq:1,2017-09-02T14:45:00Z,26.0257,-81.7332,5.01,4.3,1111122 
NERRS,ioos:station:NOAA.NERRS:rkblhwq:1,2017-09-02T15:45:00Z,26.0257,-81.7332,5.18,3.8,1111122 
NERRS,ioos:station:NOAA.NERRS:rkblhwq:1,2017-09-02T16:45:00Z,26.0257,-81.7332,5.1,3.1,1111122 
NERRS,ioos:station:NOAA.NERRS:rkblhwq:1,2017-09-02T17:45:00Z,26.0257,-81.7332,4.69,3.6,1111122 
NERRS,ioos:station:NOAA.NERRS:rkblhwq:1,2017-09-02T18:45:00Z,26.0257,-81.7332,4.19,4.0,1111122 
NERRS,ioos:station:NOAA.NERRS:rkblhwq:1,2017-09-02T19:45:00Z,26.0257,-81.7332,3.67,3.8,1111122 
NERRS,ioos:station:NOAA.NERRS:rkblhwq:1,2017-09-02T20:45:00Z,26.0257,-81.7332,3.23,4.2,1111122 
NERRS,ioos:station:NOAA.NERRS:rkblhwq:1,2017-09-02T21:45:00Z,26.0257,-81.7332,2.86,3.6,1111122 
NERRS,ioos:station:NOAA.NERRS:rkblhwq:1,2017-09-02T22:45:00Z,26.0257,-81.7332,2.66,4.7,1111122 
NERRS,ioos:station:NOAA.NERRS:rkblhwq:1,2017-09-02T23:45:00Z,26.0257,-81.7332,2.77,4.1,1111122 
NERRS,ioos:station:NOAA.NERRS:rkblhwq:1,2017-09-03T00:45:00Z,26.0257,-81.7332,3.27,5.6,1111122 
NERRS,ioos:station:NOAA.NERRS:rkblhwq:1,2017-09-03T01:45:00Z,26.0257,-81.7332,4.1,5.6,1111122 
NERRS,ioos:station:NOAA.NERRS:rkblhwq:1,2017-09-03T02:45:00Z,26.0257,-81.7332,4.38,4.9,1111122 
NERRS,ioos:station:NOAA.NERRS:rkblhwq:1,2017-09-03T03:45:00Z,26.0257,-81.7332,4.66,5.7,1111122 
NERRS,ioos:station:NOAA.NERRS:rkblhwq:1,2017-09-03T04:45:00Z,26.0257,-81.7332,4.9,4.9,1111122 
NERRS,ioos:station:NOAA.NERRS:rkblhwq:1,2017-09-03T05:45:00Z,26.0257,-81.7332,4.87,4.9,1111122 
NERRS,ioos:station:NOAA.NERRS:rkblhwq:1,2017-09-03T06:45:00Z,26.0257,-81.7332,4.55,4.7,1111122 
NERRS,ioos:station:NOAA.NERRS:rkblhwq:1,2017-09-03T07:45:00Z,26.0257,-81.7332,4.16,4.4,1111122 
NERRS,ioos:station:NOAA.NERRS:rkblhwq:1,2017-09-03T08:45:00Z,26.0257,-81.7332,3.81,4.7,1111122 
NERRS,ioos:station:NOAA.NERRS:rkblhwq:1,2017-09-03T09:45:00Z,26.0257,-81.7332,3.56,4.7,1111122 
NERRS,ioos:station:NOAA.NERRS:rkblhwq:1,2017-09-03T10:45:00Z,26.0257,-81.7332,3.58,3.5,1111122 
NERRS,ioos:station:NOAA.NERRS:rkblhwq:1,2017-09-03T11:45:00Z,26.0257,-81.7332,3.81,4.0,1111122 
NERRS,ioos:station:NOAA.NERRS:rkblhwq:1,2017-09-03T12:45:00Z,26.0257,-81.7332,4.25,4.9,1111122 
NERRS,ioos:station:NOAA.NERRS:rkblhwq:1,2017-09-03T13:45:00Z,26.0257,-81.7332,4.67,4.4,1111122 
NERRS,ioos:station:NOAA.NERRS:rkblhwq:1,2017-09-03T14:45:00Z,26.0257,-81.7332,5.01,4.6,1111122 
NERRS,ioos:station:NOAA.NERRS:rkblhwq:1,2017-09-03T15:45:00Z,26.0257,-81.7332,5.27,3.9,1111122 
NERRS,ioos:station:NOAA.NERRS:rkblhwq:1,2017-09-03T16:45:00Z,26.0257,-81.7332,5.26,2.9,1111122 
NERRS,ioos:station:NOAA.NERRS:rkblhwq:1,2017-09-03T17:45:00Z,26.0257,-81.7332,4.95,3.5,1111122 
NERRS,ioos:station:NOAA.NERRS:rkblhwq:1,2017-09-03T18:45:00Z,26.0257,-81.7332,4.48,4.0,1111122 
NERRS,ioos:station:NOAA.NERRS:rkblhwq:1,2017-09-03T19:45:00Z,26.0257,-81.7332,3.93,3.8,1111122 
NERRS,ioos:station:NOAA.NERRS:rkblhwq:1,2017-09-03T20:45:00Z,26.0257,-81.7332,3.39,3.9,1111122 
NERRS,ioos:station:NOAA.NERRS:rkblhwq:1,2017-09-03T21:45:00Z,26.0257,-81.7332,2.94,4.0,1111122 
NERRS,ioos:station:NOAA.NERRS:rkblhwq:1,2017-09-03T22:45:00Z,26.0257,-81.7332,2.53,4.1,1111122 
NERRS,ioos:station:NOAA.NERRS:rkblhwq:1,2017-09-03T23:45:00Z,26.0257,-81.7332,2.37,4.1,1111122 
NERRS,ioos:station:NOAA.NERRS:rkblhwq:1,2017-09-04T00:45:00Z,26.0257,-81.7332,2.77,4.2,1111122 
NERRS,ioos:station:NOAA.NERRS:rkblhwq:1,2017-09-04T01:45:00Z,26.0257,-81.7332,3.3,4.7,1111122 
NERRS,ioos:station:NOAA.NERRS:rkblhwq:1,2017-09-04T02:45:00Z,26.0257,-81.7332,3.82,4.6,1111122 
NERRS,ioos:station:NOAA.NERRS:rkblhwq:1,2017-09-04T03:45:00Z,26.0257,-81.7332,4.33,4.8,1111122 
NERRS,ioos:station:NOAA.NERRS:rkblhwq:1,2017-09-04T04:45:00Z,26.0257,-81.7332,4.77,4.8,1111122 
NERRS,ioos:station:NOAA.NERRS:rkblhwq:1,2017-09-04T05:45:00Z,26.0257,-81.7332,4.94,4.0,1111122 
NERRS,ioos:station:NOAA.NERRS:rkblhwq:1,2017-09-04T06:45:00Z,26.0257,-81.7332,4.78,4.0,1111122 
NERRS,ioos:station:NOAA.NERRS:rkblhwq:1,2017-09-04T07:45:00Z,26.0257,-81.7332,4.4,4.1,1111122 
NERRS,ioos:station:NOAA.NERRS:rkblhwq:1,2017-09-04T08:45:00Z,26.0257,-81.7332,3.99,4.1,1111122 
NERRS,ioos:station:NOAA.NERRS:rkblhwq:1,2017-09-04T09:45:00Z,26.0257,-81.7332,3.68,3.8,1111122 
NERRS,ioos:station:NOAA.NERRS:rkblhwq:1,2017-09-04T10:45:00Z,26.0257,-81.7332,3.46,3.4,1111122 
NERRS,ioos:station:NOAA.NERRS:rkblhwq:1,2017-09-04T11:45:00Z,26.0257,-81.7332,3.55,3.1,1111122 
NERRS,ioos:station:NOAA.NERRS:rkblhwq:1,2017-09-04T12:45:00Z,26.0257,-81.7332,3.93,3.9,1111122 
NERRS,ioos:station:NOAA.NERRS:rkblhwq:1,2017-09-04T13:45:00Z,26.0257,-81.7332,4.41,3.9,1111122 
NERRS,ioos:station:NOAA.NERRS:rkblhwq:1,2017-09-04T14:45:00Z,26.0257,-81.7332,4.87,4.2,1111122 
NERRS,ioos:station:NOAA.NERRS:rkblhwq:1,2017-09-04T15:45:00Z,26.0257,-81.7332,5.23,4.5,1111122 
NERRS,ioos:station:NOAA.NERRS:rkblhwq:1,2017-09-04T16:45:00Z,26.0257,-81.7332,5.42,4.9,1111122 
NERRS,ioos:station:NOAA.NERRS:rkblhwq:1,2017-09-04T17:45:00Z,26.0257,-81.7332,5.4,3.8,1111122 
NERRS,ioos:station:NOAA.NERRS:rkblhwq:1,2017-09-04T18:45:00Z,26.0257,-81.7332,5.08,3.8,1111122 
NERRS,ioos:station:NOAA.NERRS:rkblhwq:1,2017-09-04T19:45:00Z,26.0257,-81.7332,4.56,4.1,1111122 
NERRS,ioos:station:NOAA.NERRS:rkblhwq:1,2017-09-04T20:45:00Z,26.0257,-81.7332,3.94,4.1,1111122 
NERRS,ioos:station:NOAA.NERRS:rkblhwq:1,2017-09-04T21:45:00Z,26.0257,-81.7332,3.37,4.7,1111122 
NERRS,ioos:station:NOAA.NERRS:rkblhwq:1,2017-09-04T23:45:00Z,26.0257,-81.7332,2.71,4.9,1111122 
NERRS,ioos:station:NOAA.NERRS:rkblhwq:1,2017-09-05T00:45:00Z,26.0257,-81.7332,2.56,5.1,1111122 
NERRS,ioos:station:NOAA.NERRS:rkblhwq:1,2017-09-05T01:45:00Z,26.0257,-81.7332,3.03,5.0,1111122 
NERRS,ioos:station:NOAA.NERRS:rkblhwq:1,2017-09-05T02:45:00Z,26.0257,-81.7332,3.58,5.0,1111122 
NERRS,ioos:station:NOAA.NERRS:rkblhwq:1,2017-09-05T03:45:00Z,26.0257,-81.7332,4.1,5.2,1111122 
NERRS,ioos:station:NOAA.NERRS:rkblhwq:1,2017-09-05T04:45:00Z,26.0257,-81.7332,4.65,5.2,1111122 
NERRS,ioos:station:NOAA.NERRS:rkblhwq:1,2017-09-05T05:45:00Z,26.0257,-81.7332,4.96,4.8,1111122 
NERRS,ioos:station:NOAA.NERRS:rkblhwq:1,2017-09-05T06:45:00Z,26.0257,-81.7332,5.05,3.5,1111122 
NERRS,ioos:station:NOAA.NERRS:rkblhwq:1,2017-09-05T07:45:00Z,26.0257,-81.7332,4.73,4.8,1111122 
NERRS,ioos:station:NOAA.NERRS:rkblhwq:1,2017-09-05T08:45:00Z,26.0257,-81.7332,4.29,4.8,1111122 
NERRS,ioos:station:NOAA.NERRS:rkblhwq:1,2017-09-05T09:45:00Z,26.0257,-81.7332,3.87,4.8,1111122 
NERRS,ioos:station:NOAA.NERRS:rkblhwq:1,2017-09-05T10:45:00Z,26.0257,-81.7332,3.49,4.6,1111122 
NERRS,ioos:station:NOAA.NERRS:rkblhwq:1,2017-09-05T11:45:00Z,26.0257,-81.7332,3.26,4.3,1111122 
NERRS,ioos:station:NOAA.NERRS:rkblhwq:1,2017-09-05T12:45:00Z,26.0257,-81.7332,3.53,4.1,1111122 
NERRS,ioos:station:NOAA.NERRS:rkblhwq:1,2017-09-05T13:45:00Z,26.0257,-81.7332,4.1,4.7,1111122 
NERRS,ioos:station:NOAA.NERRS:rkblhwq:1,2017-09-05T15:45:00Z,26.0257,-81.7332,5.16,5.0,1111122 
NERRS,ioos:station:NOAA.NERRS:rkblhwq:1,2017-09-05T16:45:00Z,26.0257,-81.7332,5.44,5.2,1111122 
NERRS,ioos:station:NOAA.NERRS:rkblhwq:1,2017-09-05T17:45:00Z,26.0257,-81.7332,5.59,5.4,1111122 
NERRS,ioos:station:NOAA.NERRS:rkblhwq:1,2017-09-05T18:45:00Z,26.0257,-81.7332,5.44,4.8,1111122 
NERRS,ioos:station:NOAA.NERRS:rkblhwq:1,2017-09-05T19:45:00Z,26.0257,-81.7332,5.09,5.1,1111122 
NERRS,ioos:station:NOAA.NERRS:rkblhwq:1,2017-09-05T20:45:00Z,26.0257,-81.7332,4.61,5.1,1111122 
NERRS,ioos:station:NOAA.NERRS:rkblhwq:1,2017-09-05T21:45:00Z,26.0257,-81.7332,4.01,5.4,1111122 
NERRS,ioos:station:NOAA.NERRS:rkblhwq:1,2017-09-05T22:45:00Z,26.0257,-81.7332,3.42,5.1,1111122 
NERRS,ioos:station:NOAA.NERRS:rkblhwq:1,2017-09-05T23:45:00Z,26.0257,-81.7332,2.94,4.9,1111122 
NERRS,ioos:station:NOAA.NERRS:rkblhwq:1,2017-09-06T00:45:00Z,26.0257,-81.7332,2.69,4.8,1111122 
NERRS,ioos:station:NOAA.NERRS:rkblhwq:1,2017-09-07T14:45:00Z,26.0257,-81.7332,3.57,4.6,1111122 
NERRS,ioos:station:NOAA.NERRS:rkblhwq:1,2017-09-07T15:45:00Z,26.0257,-81.7332,4.24,5.0,1111122 
NERRS,ioos:station:NOAA.NERRS:rkblhwq:1,2017-09-07T16:45:00Z,26.0257,-81.7332,4.86,5.2,1111122 
NERRS,ioos:station:NOAA.NERRS:rkblhwq:1,2017-09-07T17:45:00Z,26.0257,-81.7332,5.31,5.6,1111122 
NERRS,ioos:station:NOAA.NERRS:rkblhwq:1,2017-09-07T18:45:00Z,26.0257,-81.7332,5.54,5.9,1111122 
NERRS,ioos:station:NOAA.NERRS:rkblhwq:1,2017-09-07T19:45:00Z,26.0257,-81.7332,5.52,5.2,1111122 
NERRS,ioos:station:NOAA.NERRS:rkblhwq:1,2017-09-07T20:45:00Z,26.0257,-81.7332,5.18,5.8,1111122 
NERRS,ioos:station:NOAA.NERRS:rkblhwq:1,2017-09-07T21:45:00Z,26.0257,-81.7332,4.74,5.6,1111122 
NERRS,ioos:station:NOAA.NERRS:rkblhwq:1,2017-09-07T22:45:00Z,26.0257,-81.7332,4.21,5.8,1111122 
NERRS,ioos:station:NOAA.NERRS:rkblhwq:1,2017-09-07T23:45:00Z,26.0257,-81.7332,3.68,5.7,1111122 
NERRS,ioos:station:NOAA.NERRS:rkblhwq:1,2017-09-08T00:45:00Z,26.0257,-81.7332,3.16,5.3,1111122 
NERRS,ioos:station:NOAA.NERRS:rkblhwq:1,2017-09-08T01:45:00Z,26.0257,-81.7332,2.9,5.1,1111122 
NERRS,ioos:station:NOAA.NERRS:rkblhwq:1,2017-09-08T02:45:00Z,26.0257,-81.7332,3.08,4.9,1111122 
NERRS,ioos:station:NOAA.NERRS:rkblhwq:1,2017-09-08T03:45:00Z,26.0257,-81.7332,3.61,5.3,1111122 
NERRS,ioos:station:NOAA.NERRS:rkblhwq:1,2017-09-08T04:45:00Z,26.0257,-81.7332,4.12,5.1,1111122 
NERRS,ioos:station:NOAA.NERRS:rkblhwq:1,2017-09-08T05:45:00Z,26.0257,-81.7332,4.61,5.4,1111122 
NERRS,ioos:station:NOAA.NERRS:rkblhwq:1,2017-09-08T06:45:00Z,26.0257,-81.7332,5.05,5.2,1111122 
NERRS,ioos:station:NOAA.NERRS:rkblhwq:1,2017-09-08T07:45:00Z,26.0257,-81.7332,5.09,2.1,1111122 
NERRS,ioos:station:NOAA.NERRS:rkblhwq:1,2017-09-08T08:45:00Z,26.0257,-81.7332,4.88,4.5,1111122 
NERRS,ioos:station:NOAA.NERRS:rkblhwq:1,2017-09-08T09:45:00Z,26.0257,-81.7332,4.5,3.8,1111122 
NERRS,ioos:station:NOAA.NERRS:rkblhwq:1,2017-09-08T10:45:00Z,26.0257,-81.7332,3.99,3.9,1111122 
NERRS,ioos:station:NOAA.NERRS:rkblhwq:1,2017-09-08T11:45:00Z,26.0257,-81.7332,3.45,4.1,1111122 
NERRS,ioos:station:NOAA.NERRS:rkblhwq:1,2017-09-08T12:45:00Z,26.0257,-81.7332,2.99,3.2,1111122 
NERRS,ioos:station:NOAA.NERRS:rkblhwq:1,2017-09-08T13:45:00Z,26.0257,-81.7332,2.7,3.4,1111122 
NERRS,ioos:station:NOAA.NERRS:rkblhwq:1,2017-09-08T14:45:00Z,26.0257,-81.7332,2.95,3.9,1111122 
NERRS,ioos:station:NOAA.NERRS:rkblhwq:1,2017-09-08T15:45:00Z,26.0257,-81.7332,3.49,5.0,1111122 
NERRS,ioos:station:NOAA.NERRS:rkblhwq:1,2017-09-08T16:45:00Z,26.0257,-81.7332,4.03,5.7,1111122 
NERRS,ioos:station:NOAA.NERRS:rkblhwq:1,2017-09-08T17:45:00Z,26.0257,-81.7332,4.56,6.0,1111122 
NERRS,ioos:station:NOAA.NERRS:rkblhwq:1,2017-09-08T18:45:00Z,26.0257,-81.7332,5.0,6.1,1111122 
NERRS,ioos:station:NOAA.NERRS:rkblhwq:1,2017-09-08T19:45:00Z,26.0257,-81.7332,5.15,6.0,1111122 
NERRS,ioos:station:NOAA.NERRS:rkblhwq:1,2017-09-08T20:45:00Z,26.0257,-81.7332,4.98,5.8,1111122 
NERRS,ioos:station:NOAA.NERRS:rkblhwq:1,2017-09-08T21:45:00Z,26.0257,-81.7332,4.53,6.1,1111122 
NERRS,ioos:station:NOAA.NERRS:rkblhwq:1,2017-09-08T22:45:00Z,26.0257,-81.7332,4.02,5.5,1111122 
NERRS,ioos:station:NOAA.NERRS:rkblhwq:1,2017-09-08T23:45:00Z,26.0257,-81.7332,3.5,5.6,1111122 
NERRS,ioos:station:NOAA.NERRS:rkblhwq:1,2017-09-09T00:45:00Z,26.0257,-81.7332,3.04,5.5,1111122 
NERRS,ioos:station:NOAA.NERRS:rkblhwq:1,2017-09-09T01:45:00Z,26.0257,-81.7332,2.61,4.7,1111122 
NERRS,ioos:station:NOAA.NERRS:rkblhwq:1,2017-09-09T02:45:00Z,26.0257,-81.7332,2.49,4.4,1111122 
NERRS,ioos:station:NOAA.NERRS:rkblhwq:1,2017-09-09T03:45:00Z,26.0257,-81.7332,2.79,4.5,1111122 
NERRS,ioos:station:NOAA.NERRS:rkblhwq:1,2017-09-09T04:45:00Z,26.0257,-81.7332,3.27,4.8,1111122 
NERRS,ioos:station:NOAA.NERRS:rkblhwq:1,2017-09-09T05:45:00Z,26.0257,-81.7332,3.82,5.0,1111122 
NERRS,ioos:station:NOAA.NERRS:rkblhwq:1,2017-09-09T06:45:00Z,26.0257,-81.7332,4.24,4.9,1111122 
NERRS,ioos:station:NOAA.NERRS:rkblhwq:1,2017-09-09T07:45:00Z,26.0257,-81.7332,4.57,4.7,1111122 
NERRS,ioos:station:NOAA.NERRS:rkblhwq:1,2017-09-09T08:45:00Z,26.0257,-81.7332,4.61,3.8,1111122 
NERRS,ioos:station:NOAA.NERRS:rkblhwq:1,2017-09-09T09:45:00Z,26.0257,-81.7332,4.29,5.1,1111122 
NERRS,ioos:station:NOAA.NERRS:rkblhwq:1,2017-09-09T10:45:00Z,26.0257,-81.7332,3.76,4.1,1111122 
NERRS,ioos:station:NOAA.NERRS:rkblhwq:1,2017-09-09T11:45:00Z,26.0257,-81.7332,3.23,3.8,1111122 
NERRS,ioos:station:NOAA.NERRS:rkblhwq:1,2017-09-09T12:45:00Z,26.0257,-81.7332,2.75,4.0,1111122 
NERRS,ioos:station:NOAA.NERRS:rkblhwq:1,2017-09-09T13:45:00Z,26.0257,-81.7332,2.38,4.3,1111122 
NERRS,ioos:station:NOAA.NERRS:rkblhwq:1,2017-09-09T14:45:00Z,26.0257,-81.7332,2.44,4.5,1111122 
NERRS,ioos:station:NOAA.NERRS:rkblhwq:1,2017-09-09T15:45:00Z,26.0257,-81.7332,2.77,4.9,1111122 
NERRS,ioos:station:NOAA.NERRS:rkblhwq:1,2017-09-09T16:45:00Z,26.0257,-81.7332,3.18,5.6,1111122 
NERRS,ioos:station:NOAA.NERRS:rkblhwq:1,2017-09-09T17:45:00Z,26.0257,-81.7332,3.55,5.4,1111122 
NERRS,ioos:station:NOAA.NERRS:rkblhwq:1,2017-09-09T18:45:00Z,26.0257,-81.7332,3.9,5.7,1111122 
NERRS,ioos:station:NOAA.NERRS:rkblhwq:1,2017-09-09T19:45:00Z,26.0257,-81.7332,4.32,6.1,1111122 
NERRS,ioos:station:NOAA.NERRS:rkblhwq:1,2017-09-09T20:45:00Z,26.0257,-81.7332,4.29,3.7,1111122 
NERRS,ioos:station:NOAA.NERRS:rkblhwq:1,2017-09-09T21:45:00Z,26.0257,-81.7332,4.03,6.4,1111122 
NERRS,ioos:station:NOAA.NERRS:rkblhwq:1,2017-09-09T22:45:00Z,26.0257,-81.7332,3.51,6.3,1111122 
NERRS,ioos:station:NOAA.NERRS:rkblhwq:1,2017-09-09T23:45:00Z,26.0257,-81.7332,2.99,5.8,1111122 
NERRS,ioos:station:NOAA.NERRS:rkblhwq:1,2017-09-10T00:45:00Z,26.0257,-81.7332,2.53,5.4,1111122 
NERRS,ioos:station:NOAA.NERRS:rkblhwq:1,2017-09-10T01:45:00Z,26.0257,-81.7332,2.12,5.3,1111122 
NERRS,ioos:station:NOAA.NERRS:rkblhwq:1,2017-09-10T02:45:00Z,26.0257,-81.7332,1.78,5.8,1111122 
NERRS,ioos:station:NOAA.NERRS:rkblhwq:1,2017-09-10T03:45:00Z,26.0257,-81.7332,1.45,5.8,1111122 
NERRS,ioos:station:NOAA.NERRS:rkblhwq:1,2017-09-10T04:45:00Z,26.0257,-81.7332,1.22,5.5,1111122 
NERRS,ioos:station:NOAA.NERRS:rkblhwq:1,2017-09-10T05:45:00Z,26.0257,-81.7332,1.34,5.8,1111122 
NERRS,ioos:station:NOAA.NERRS:rkblhwq:1,2017-09-10T06:45:00Z,26.0257,-81.7332,1.76,5.5,1111122 
NERRS,ioos:station:NOAA.NERRS:rkblhwq:1,2017-09-10T07:45:00Z,26.0257,-81.7332,1.82,5.9,1111122 
NERRS,ioos:station:NOAA.NERRS:rkblhwq:1,2017-09-10T08:45:00Z,26.0257,-81.7332,1.76,6.1,1111122 
NERRS,ioos:station:NOAA.NERRS:rkblhwq:1,2017-09-10T09:45:00Z,26.0257,-81.7332,1.41,6.8,1111122 
NERRS,ioos:station:NOAA.NERRS:rkblhwq:1,2017-09-10T10:45:00Z,26.0257,-81.7332,0.93,6.9,1111122 
NERRS,ioos:station:NOAA.NERRS:rkblhwq:1,2017-09-10T11:45:00Z,26.0257,-81.7332,0.58,6.5,1111122 
NERRS,ioos:station:NOAA.NERRS:rkblhwq:1,2017-09-10T12:45:00Z,26.0257,-81.7332,0.2,7.3,1111122 
NERRS,ioos:station:NOAA.NERRS:rkblhwq:1,2017-09-10T13:45:00Z,26.0257,-81.7332,-0.07,7.4,1111122 
NERRS,ioos:station:NOAA.NERRS:rkblhwq:1,2017-09-10T14:45:00Z,26.0257,-81.7332,-0.33,7.6,1111122 
NERRS,ioos:station:NOAA.NERRS:rkblhwq:1,2017-09-10T15:45:00Z,26.0257,-81.7332,-0.52,7.6,1111122 
NERRS,ioos:station:NOAA.NERRS:rkblhwq:1,2017-09-10T16:45:00Z,26.0257,-81.7332,-0.63,7.3,1111122 
NERRS,ioos:station:NOAA.NERRS:rkblhwq:1,2017-09-10T17:45:00Z,26.0257,-81.7332,-0.75,7.3,1111122 
NERRS,ioos:station:NOAA.NERRS:rkblhwq:1,2017-09-10T18:45:00Z,26.0257,-81.7332,-0.98,7.0,1111122 
NERRS,ioos:station:NOAA.NERRS:rkblhwq:1,2017-09-10T19:45:00Z,26.0257,-81.7332,-1.66,6.3,1111122 
NERRS,ioos:station:NOAA.NERRS:rkblhwq:1,2017-09-10T20:45:00Z,26.0257,-81.7332,-1.07,4.5,1111122 
NERRS,ioos:station:NOAA.NERRS:rkblhwq:1,2017-09-10T21:45:00Z,26.0257,-81.7332,1.79,5.9,1111122 
NERRS,ioos:station:NOAA.NERRS:rkblhwq:1,2017-09-10T22:45:00Z,26.0257,-81.7332,4.54,6.1,1111122 
NERRS,ioos:station:NOAA.NERRS:rkblhwq:1,2017-09-10T23:45:00Z,26.0257,-81.7332,5.72,6.2,1111122 
NERRS,ioos:station:NOAA.NERRS:rkblhwq:1,2017-09-11T00:45:00Z,26.0257,-81.7332,6.42,6.3,1111122 
NERRS,ioos:station:NOAA.NERRS:rkblhwq:1,2017-09-11T01:45:00Z,26.0257,-81.7332,6.91,6.3,1111122 
NERRS,ioos:station:NOAA.NERRS:rkblhwq:1,2017-09-11T02:45:00Z,26.0257,-81.7332,7.01,5.8,1111122 
NERRS,ioos:station:NOAA.NERRS:rkblhwq:1,2017-09-11T03:45:00Z,26.0257,-81.7332,7.01,6.1,1111122 
NERRS,ioos:station:NOAA.NERRS:rkblhwq:1,2017-09-11T04:45:00Z,26.0257,-81.7332,6.99,5.9,1111122 
NERRS,ioos:station:NOAA.NERRS:rkblhwq:1,2017-09-11T05:45:00Z,26.0257,-81.7332,6.94,5.8,1111122 
NERRS,ioos:station:NOAA.NERRS:rkblhwq:1,2017-09-11T06:45:00Z,26.0257,-81.7332,6.83,6.1,1111122 
NERRS,ioos:station:NOAA.NERRS:rkblhwq:1,2017-09-11T07:45:00Z,26.0257,-81.7332,6.62,6.2,1111122 
NERRS,ioos:station:NOAA.NERRS:rkblhwq:1,2017-09-11T08:45:00Z,26.0257,-81.7332,6.42,6.1,1111122 
NERRS,ioos:station:NOAA.NERRS:rkblhwq:1,2017-09-11T09:45:00Z,26.0257,-81.7332,6.23,5.8,1111122 
NERRS,ioos:station:NOAA.NERRS:rkblhwq:1,2017-09-11T10:45:00Z,26.0257,-81.7332,6.15,5.2,1111122 
NERRS,ioos:station:NOAA.NERRS:rkblhwq:1,2017-09-11T11:45:00Z,26.0257,-81.7332,5.98,4.7,1111122 
NERRS,ioos:station:NOAA.NERRS:rkblhwq:1,2017-09-11T12:45:00Z,26.0257,-81.7332,5.74,4.2,1111122 
NERRS,ioos:station:NOAA.NERRS:rkblhwq:1,2017-09-11T13:45:00Z,26.0257,-81.7332,5.48,4.2,1111122 
NERRS,ioos:station:NOAA.NERRS:rkblhwq:1,2017-09-11T14:45:00Z,26.0257,-81.7332,5.18,4.0,1111122 
NERRS,ioos:station:NOAA.NERRS:rkblhwq:1,2017-09-11T15:45:00Z,26.0257,-81.7332,4.91,3.4,1111122 
NERRS,ioos:station:NOAA.NERRS:rkblhwq:1,2017-09-11T16:45:00Z,26.0257,-81.7332,4.65,3.5,1111122 
NERRS,ioos:station:NOAA.NERRS:rkblhwq:1,2017-09-11T17:45:00Z,26.0257,-81.7332,4.76,2.5,1111122 
NERRS,ioos:station:NOAA.NERRS:rkblhwq:1,2017-09-11T18:45:00Z,26.0257,-81.7332,5.11,1.9,1111122 
NERRS,ioos:station:NOAA.NERRS:rkblhwq:1,2017-09-11T19:45:00Z,26.0257,-81.7332,5.27,2.4,1111122 
NERRS,ioos:station:NOAA.NERRS:rkblhwq:1,2017-09-11T20:45:00Z,26.0257,-81.7332,5.28,2.9,1111122 
NERRS,ioos:station:NOAA.NERRS:rkblhwq:1,2017-09-11T21:45:00Z,26.0257,-81.7332,5.26,2.8,1111122 
NERRS,ioos:station:NOAA.NERRS:rkblhwq:1,2017-09-11T22:45:00Z,26.0257,-81.7332,5.31,2.9,1111122 
NERRS,ioos:station:NOAA.NERRS:rkblhwq:1,2017-09-11T23:45:00Z,26.0257,-81.7332,5.3,3.4,1111122 
NERRS,ioos:station:NOAA.NERRS:rkblhwq:1,2017-09-12T00:45:00Z,26.0257,-81.7332,5.19,4.2,1111122 
NERRS,ioos:station:NOAA.NERRS:rkblhwq:1,2017-09-12T01:45:00Z,26.0257,-81.7332,4.94,3.5,1111122 
NERRS,ioos:station:NOAA.NERRS:rkblhwq:1,2017-09-12T02:45:00Z,26.0257,-81.7332,4.67,3.5,1111122 
NERRS,ioos:station:NOAA.NERRS:rkblhwq:1,2017-09-12T03:45:00Z,26.0257,-81.7332,4.37,3.2,1111122 
NERRS,ioos:station:NOAA.NERRS:rkblhwq:1,2017-09-12T04:45:00Z,26.0257,-81.7332,4.15,2.7,1111122 
NERRS,ioos:station:NOAA.NERRS:rkblhwq:1,2017-09-12T05:45:00Z,26.0257,-81.7332,4.26,1.6,1111122 
NERRS,ioos:station:NOAA.NERRS:rkblhwq:1,2017-09-12T06:45:00Z,26.0257,-81.7332,4.49,3.3,1111122 
NERRS,ioos:station:NOAA.NERRS:rkblhwq:1,2017-09-12T07:45:00Z,26.0257,-81.7332,4.77,3.6,1111122 
NERRS,ioos:station:NOAA.NERRS:rkblhwq:1,2017-09-12T08:45:00Z,26.0257,-81.7332,4.97,4.1,1111122 
NERRS,ioos:station:NOAA.NERRS:rkblhwq:1,2017-09-12T09:45:00Z,26.0257,-81.7332,5.16,3.6,1111122 
NERRS,ioos:station:NOAA.NERRS:rkblhwq:1,2017-09-12T10:45:00Z,26.0257,-81.7332,5.27,3.1,1111122 
NERRS,ioos:station:NOAA.NERRS:rkblhwq:1,2017-09-12T11:45:00Z,26.0257,-81.7332,5.15,1.7,1111122 
NERRS,ioos:station:NOAA.NERRS:rkblhwq:1,2017-09-12T12:45:00Z,26.0257,-81.7332,4.81,0.9,1111122 
NERRS,ioos:station:NOAA.NERRS:rkblhwq:1,2017-09-12T13:45:00Z,26.0257,-81.7332,4.39,1.5,1111122 
NERRS,ioos:station:NOAA.NERRS:rkblhwq:1,2017-09-12T14:45:00Z,26.0257,-81.7332,3.89,1.2,1111122 
NERRS,ioos:station:NOAA.NERRS:rkblhwq:1,2017-09-12T15:45:00Z,26.0257,-81.7332,3.42,1.4,1111122 
NERRS,ioos:station:NOAA.NERRS:rkblhwq:1,2017-09-12T16:45:00Z,26.0257,-81.7332,3.01,1.2,1111122 
NERRS,ioos:station:NOAA.NERRS:rkblhwq:1,2017-09-12T17:45:00Z,26.0257,-81.7332,2.79,1.0,1111122 
NERRS,ioos:station:NOAA.NERRS:rkblhwq:1,2017-09-12T18:45:00Z,26.0257,-81.7332,3.02,0.6,1111122 
NERRS,ioos:station:NOAA.NERRS:rkblhwq:1,2017-09-12T19:45:00Z,26.0257,-81.7332,3.44,1.7,1111122 
NERRS,ioos:station:NOAA.NERRS:rkblhwq:1,2017-09-12T20:45:00Z,26.0257,-81.7332,3.83,1.7,1111122 
NERRS,ioos:station:NOAA.NERRS:rkblhwq:1,2017-09-12T21:45:00Z,26.0257,-81.7332,4.15,1.8,1111122 
NERRS,ioos:station:NOAA.NERRS:rkblhwq:1,2017-09-12T22:45:00Z,26.0257,-81.7332,4.41,1.6,1111122 
NERRS,ioos:station:NOAA.NERRS:rkblhwq:1,2017-09-12T23:45:00Z,26.0257,-81.7332,4.64,1.6,1111122 
NERRS,ioos:station:NOAA.NERRS:rkblhwq:1,2017-09-13T00:45:00Z,26.0257,-81.7332,4.68,0.9,1111122 